DW7251 Weather Reports


Display with metric or nautical units.
time (UTC)temp
F
wind
direction
speed
MPH
gust
MPH
rain 1hr
in
rain 24hr
in
rain mn
in
humidity
%
barometer
mb
20260831174142 53 31 0.0 3.0 0.00 0.00 0.00 91 1021.1
20260831173624 53 14 0.0 3.0 0.00 0.00 0.00 91 1021.1
20260831173127 53 331 0.0 3.0 0.00 0.00 0.00 91 1021.2
20260831172608 53 60 0.0 3.0 0.00 0.00 0.00 91 1021.3
20260831172105 53 11 0.0 3.0 0.00 0.00 0.00 91 1021.4
20260831171554 53 36 0.0 3.0 0.00 0.00 0.00 91 1021.4
20260831171102 52 70 0.0 3.0 0.00 0.00 0.00 91 1021.6
20260831165305 52 54 0.0 1.0 0.00 0.00 0.00 91 1021.8
20260831164748 52 321 0.0 0.0 0.00 0.00 0.00 90 1021.9
20260831162925 52 42 0.0 3.0 0.00 0.00 0.00 91 1022.2
20260831162416 52 49 0.0 2.0 0.00 0.00 0.00 91 1022.2
20260831161925 51 44 0.0 2.0 0.00 0.00 0.00 90 1022.3
20260831161415 51 11 0.0 2.0 0.00 0.00 0.00 90 1022.5
20260831160905 51 51 0.0 0.0 0.00 0.00 0.00 90 1022.5
20260831160400 51 47 0.0 0.0 0.00 0.00 0.00 90 1022.5
20260831155337 50 10 0.0 0.0 0.00 0.00 0.00 89 1022.6
20260831154834 50 10 0.0 0.0 0.00 0.00 0.00 89 1022.6
20260831154331 51 10 0.0 0.0 0.00 0.00 0.00 89 1022.8
20260831153836 51 10 0.0 0.0 0.00 0.00 0.00 89 1022.8
20260831153321 51 11 0.0 0.0 0.00 0.00 0.00 89 1022.9
20260831152801 51 2 0.0 0.0 0.00 0.00 0.00 89 1022.9
20260831151645 51 355 0.0 2.0 0.00 0.00 0.00 89 1023.0
20260831151134 51 13 0.0 2.0 0.00 0.00 0.00 89 1022.9
20260831150622 51 352 0.0 1.0 0.00 0.00 0.00 89 1023.0
20260831150107 51 37 0.0 0.0 0.00 0.00 0.00 89 1023.0
20260831145548 51 32 0.0 0.0 0.00 0.00 0.00 89 1023.0
20260831145054 51 37 0.0 1.0 0.00 0.00 0.00 89 1023.1
20260831144555 51 7 0.0 1.0 0.00 0.00 0.00 89 1023.2
20260831144045 50 32 0.0 0.0 0.00 0.00 0.00 89 1023.4
20260831143511 50 32 0.0 0.0 0.00 0.00 0.00 89 1023.4
20260831143008 50 35 0.0 0.0 0.00 0.00 0.00 88 1023.5
20260831142456 50 35 0.0 0.0 0.00 0.00 0.00 88 1023.5
20260831141945 51 35 0.0 0.0 0.00 0.00 0.00 89 1023.7
20260831141434 51 35 0.0 0.0 0.00 0.00 0.00 89 1023.7
20260831140926 51 32 0.0 0.0 0.00 0.00 0.00 89 1023.8
20260831140431 51 352 0.0 1.0 0.00 0.00 0.00 89 1023.9
20260831135248 51 31 0.0 1.0 0.00 0.00 0.00 89 1024.1
20260831134738 51 42 0.0 0.0 0.00 0.00 0.00 90 1024.2
20260831134230 51 19 0.0 0.0 0.00 0.00 0.00 89 1024.3
20260831133725 51 37 0.0 2.0 0.00 0.00 0.00 89 1024.4
20260831133227 51 32 0.0 2.0 0.00 0.00 0.00 89 1024.4
20260831132722 51 40 0.0 2.0 0.00 0.00 0.00 90 1024.5
20260831132209 51 47 0.0 1.0 0.00 0.00 0.00 90 1024.6
20260831131716 51 37 0.0 2.0 0.00 0.00 0.00 90 1024.7
20260831131212 51 120 0.0 2.0 0.00 0.00 0.00 90 1024.8
20260831130710 50 25 0.0 2.0 0.00 0.00 0.00 90 1024.8
20260831130205 50 12 0.0 2.0 0.00 0.00 0.00 90 1024.9
20260831125038 50 39 0.0 1.0 0.00 0.00 0.00 90 1025.0
20260831124548 49 41 0.0 0.0 0.00 0.00 0.00 90 1025.1
20260831124045 49 34 0.0 0.0 0.00 0.00 0.00 89 1025.3
20260831123527 49 34 0.0 0.0 0.00 0.00 0.00 89 1025.3
20260831122348 49 34 0.0 0.0 0.00 0.00 0.00 89 1025.3
20260831121831 49 40 0.0 0.0 0.00 0.00 0.00 89 1025.3
20260831120706 49 36 0.0 0.0 0.00 0.00 0.00 89 1025.3
20260831120156 49 34 0.0 0.0 0.00 0.00 0.00 89 1025.3
20260831113817 49 145 0.0 0.0 0.00 0.00 0.00 88 1025.5
20260831113320 49 145 0.0 0.0 0.00 0.00 0.00 88 1025.5
20260831112206 49 145 0.0 0.0 0.00 0.00 0.00 88 1025.6
20260831111657 49 145 0.0 0.0 0.00 0.00 0.00 88 1025.6
20260831111159 49 145 0.0 0.0 0.00 0.00 0.00 88 1025.5
20260831110707 49 145 0.0 0.0 0.00 0.00 0.00 88 1025.5
20260831110202 49 145 0.0 0.0 0.00 0.00 0.00 87 1025.6
20260831105711 49 145 0.0 0.0 0.00 0.00 0.00 87 1025.7
20260831105211 49 145 0.0 0.0 0.00 0.00 0.00 87 1025.7
20260831104655 50 145 0.0 0.0 0.00 0.00 0.00 87 1025.7
20260831104138 50 145 0.0 0.0 0.00 0.00 0.00 87 1025.8
20260831102955 50 145 0.0 0.0 0.00 0.00 0.00 86 1025.8
20260831101806 50 145 0.0 0.0 0.00 0.00 0.00 86 1025.9
20260831100631 51 145 0.0 0.0 0.00 0.00 0.00 85 1025.9
20260831100117 51 145 0.0 0.0 0.00 0.00 0.00 85 1025.8
20260831095615 51 145 0.0 0.0 0.00 0.00 0.00 86 1025.8
20260831095123 51 145 0.0 0.0 0.00 0.00 0.00 86 1025.9
20260831093954 51 145 0.0 0.0 0.00 0.00 0.00 85 1026.0
20260831093459 51 145 0.0 0.0 0.00 0.00 0.00 85 1026.0
20260831093004 51 145 0.0 0.0 0.00 0.00 0.00 85 1026.1
20260831091839 52 145 0.0 0.0 0.00 0.00 0.00 85 1026.1
20260831091329 52 145 0.0 0.0 0.00 0.00 0.00 84 1026.1
20260831090828 52 145 0.0 0.0 0.00 0.00 0.00 84 1026.2
20260831090322 52 145 0.0 0.0 0.00 0.00 0.00 84 1026.2
20260831085827 52 145 0.0 0.0 0.00 0.00 0.00 84 1026.2
20260831084702 53 145 0.0 0.0 0.00 0.00 0.00 83 1026.3
20260831084159 53 145 0.0 0.0 0.00 0.00 0.00 83 1026.3
20260831083644 53 145 0.0 0.0 0.00 0.00 0.00 83 1026.3
20260831083150 54 145 0.0 0.0 0.00 0.00 0.00 83 1026.3
20260831082024 55 145 0.0 0.0 0.00 0.00 0.00 83 1026.4
20260831081507 55 145 0.0 0.0 0.00 0.00 0.00 83 1026.4
20260831081005 55 145 0.0 0.0 0.00 0.00 0.00 83 1026.4
20260831080504 56 145 0.0 0.0 0.00 0.00 0.00 83 1026.4
20260831075955 56 155 0.0 0.0 0.00 0.00 0.00 83 1026.4
20260831075442 56 155 0.0 0.0 0.00 0.00 0.00 83 1026.4
20260831074944 57 155 0.0 0.0 0.00 0.00 0.00 82 1026.4
20260831074424 57 155 0.0 0.0 0.00 0.00 0.00 82 1026.4
20260831073237 57 141 0.0 0.0 0.00 0.00 0.00 81 1026.4
20260831072725 58 184 0.0 0.0 0.00 0.00 0.00 81 1026.4
20260831072233 58 183 0.0 2.0 0.00 0.00 0.00 81 1026.4
20260831071717 58 197 0.0 2.0 0.00 0.00 0.00 80 1026.5
20260831071224 58 157 0.0 2.0 0.00 0.00 0.00 80 1026.5
20260831070731 59 213 0.0 2.0 0.00 0.00 0.00 80 1026.5
20260831070239 59 210 0.0 2.0 0.00 0.00 0.00 80 1026.5
20260831065744 59 175 0.0 2.0 0.00 0.00 0.00 80 1026.6
20260831065250 59 148 0.0 2.0 0.00 0.00 0.00 80 1026.6
20260831064742 59 170 0.0 2.0 0.00 0.00 0.00 80 1026.6
20260831063622 58 188 1.0 3.0 0.00 0.00 0.00 80 1026.7
20260831063123 58 199 1.0 3.0 0.00 0.00 0.00 80 1026.8
20260831062626 58 201 1.0 3.0 0.00 0.00 0.00 80 1026.8
20260831062136 58 128 1.0 3.0 0.00 0.00 0.00 80 1026.9
20260831061619 58 244 1.0 3.0 0.00 0.00 0.00 80 1026.9
20260831061117 58 200 1.0 4.0 0.00 0.00 0.00 80 1027.0
20260831060557 58 185 1.0 4.0 0.00 0.00 0.00 80 1027.1
20260831055453 58 201 1.0 4.0 0.00 0.00 0.00 80 1027.2
20260831054314 58 146 1.0 4.0 0.00 0.00 0.00 80 1027.3
20260831053822 58 184 1.0 4.0 0.00 0.00 0.00 80 1027.3
20260831053311 57 120 1.0 4.0 0.00 0.00 0.00 80 1027.3
20260831052758 57 213 1.0 4.0 0.00 0.00 0.00 80 1027.3
20260831051630 57 200 1.0 3.0 0.00 0.00 0.00 80 1027.5
20260831051127 57 191 1.0 4.0 0.00 0.00 0.00 80 1027.5
20260831050619 57 233 1.0 4.0 0.00 0.00 0.00 81 1027.6
20260831050108 56 127 2.0 5.0 0.00 0.00 0.00 80 1027.7
20260831045615 56 148 1.0 5.0 0.00 0.00 0.00 80 1027.9
20260831045104 56 201 1.0 5.0 0.00 0.00 0.00 80 1027.9
20260831044603 56 167 2.0 5.0 0.00 0.00 0.00 80 1028.1
20260831044053 56 223 1.0 5.0 0.00 0.00 0.00 79 1028.3
20260831043536 56 223 1.0 5.0 0.00 0.00 0.00 79 1028.3
20260831043031 56 144 1.0 4.0 0.00 0.00 0.00 79 1028.3
20260831042523 56 158 1.0 4.0 0.00 0.00 0.00 79 1028.4
20260831042015 57 148 1.0 4.0 0.00 0.00 0.00 79 1028.5
20260831041506 57 174 1.0 4.0 0.00 0.00 0.00 79 1028.6
20260831040958 57 144 0.0 4.0 0.00 0.00 0.00 79 1028.7
20260831040444 56 149 1.0 4.0 0.00 0.00 0.00 79 1028.8
20260831035936 56 175 1.0 4.0 0.00 0.00 0.00 78 1028.8
20260831035424 57 189 0.0 3.0 0.00 0.00 0.00 79 1028.8
20260831034303 57 170 1.0 3.0 0.00 0.00 0.00 78 1029.0
20260831033803 57 143 0.0 3.0 0.00 0.00 0.00 78 1029.1
20260831033250 57 148 0.0 3.0 0.00 0.00 0.00 78 1029.2
20260831032758 57 143 0.0 3.0 0.00 0.00 0.00 78 1029.3
20260831032245 57 157 0.0 3.0 0.00 0.00 0.00 77 1029.4
20260831031740 57 43 0.0 3.0 0.00 0.00 0.00 78 1029.4
20260831031242 57 148 0.0 3.0 0.00 0.00 0.00 77 1029.5
20260831030726 58 234 0.0 3.0 0.00 0.00 0.00 75 1029.6
20260831030218 58 90 0.0 2.0 0.00 0.00 0.00 75 1029.7
20260831025700 59 113 0.0 2.0 0.00 0.00 0.00 75 1029.9
20260831025152 59 328 0.0 0.0 0.00 0.00 0.00 76 1030.0
20260831024641 58 146 0.0 3.0 0.00 0.00 0.00 76 1030.1
20260831024130 58 47 0.0 3.0 0.00 0.00 0.00 76 1030.2
20260831023624 58 129 0.0 1.0 0.00 0.00 0.00 75 1030.2
20260831023107 58 289 0.0 1.0 0.00 0.00 0.00 76 1030.4
20260831022606 58 92 0.0 0.0 0.00 0.00 0.00 77 1030.5
20260831021438 57 211 0.0 2.0 0.00 0.00 0.00 78 1030.7
20260831020942 57 306 0.0 2.0 0.00 0.00 0.00 78 1030.7
20260831020431 57 91 0.0 1.0 0.00 0.00 0.00 78 1030.8
20260831015258 57 302 0.0 1.0 0.00 0.00 0.00 77 1031.0
20260831014140 56 257 0.0 0.0 0.00 0.00 0.00 80 1031.3
20260831013034 55 283 0.0 1.0 0.00 0.00 0.00 81 1031.4
20260831011914 55 105 0.0 0.0 0.00 0.00 0.00 81 1031.4
20260831011403 55 309 0.0 2.0 0.00 0.00 0.00 81 1031.5
20260831010857 55 137 0.0 1.0 0.00 0.00 0.00 82 1031.5
20260831010355 55 23 0.0 1.0 0.00 0.00 0.00 82 1031.5
20260831005858 55 310 0.0 1.0 0.00 0.00 0.00 82 1031.6
20260831005403 55 275 0.0 1.0 0.00 0.00 0.00 82 1031.6
20260831004907 55 298 0.0 1.0 0.00 0.00 0.00 82 1031.7
20260831003746 54 314 0.0 0.0 0.00 0.00 0.00 83 1031.8
20260831002612 54 351 0.0 0.0 0.00 0.00 0.00 84 1031.9
20260831002107 54 314 0.0 1.0 0.00 0.00 0.00 84 1031.8
20260831001602 54 335 0.0 3.0 0.00 0.00 0.00 84 1031.8
20260831001111 54 59 0.0 1.0 0.00 0.00 0.00 84 1031.9
20260831000559 54 301 0.0 0.0 0.00 0.00 0.00 85 1031.9
20260831000041 54 260 0.0 1.0 0.00 0.00 0.00 85 1031.8
20260830235549 53 213 0.0 1.0 0.00 0.00 0.00 85 1031.8
20260830235046 53 330 0.0 2.0 0.00 0.00 0.00 85 1031.8
20260830234534 53 308 0.0 0.0 0.00 0.00 0.00 85 1031.8
20260830234019 53 347 0.0 2.0 0.00 0.00 0.00 86 1031.9
20260830233528 53 286 0.0 1.0 0.00 0.00 0.00 86 1031.9
20260830232355 53 263 0.0 2.0 0.00 0.00 0.00 86 1031.8
20260830231847 52 198 0.0 1.0 0.00 0.00 0.00 86 1031.9
20260830230708 52 310 0.0 2.0 0.00 0.00 0.00 87 1031.8
20260830225536 52 306 0.0 0.0 0.00 0.00 0.00 87 1031.9
20260830224422 52 275 0.0 0.0 0.00 0.00 0.00 87 1031.8
20260830223919 52 298 0.0 0.0 0.00 0.00 0.00 87 1031.9
20260830223407 52 154 0.0 2.0 0.00 0.00 0.00 88 1031.9
20260830222853 52 276 0.0 2.0 0.00 0.00 0.00 88 1031.9
20260830221727 52 288 0.0 0.0 0.00 0.00 0.00 88 1031.8
20260830221215 51 326 0.0 0.0 0.00 0.00 0.00 88 1031.8
20260830214831 51 279 0.0 2.0 0.00 0.00 0.00 89 1031.8
20260830214338 51 313 0.0 0.0 0.00 0.00 0.00 89 1031.8
20260830213823 51 236 0.0 1.0 0.00 0.00 0.00 89 1031.8
20260830213307 51 262 0.0 1.0 0.00 0.00 0.00 89 1031.7
20260830212753 51 289 0.0 1.0 0.00 0.00 0.00 89 1031.6
20260830212253 51 309 0.0 1.0 0.00 0.00 0.00 89 1031.6
20260830211749 51 304 0.0 0.0 0.00 0.00 0.00 89 1031.6
20260830211257 51 293 0.0 0.0 0.00 0.00 0.00 89 1031.6
20260830210746 51 257 0.0 0.0 0.00 0.00 0.00 89 1031.5
20260830205626 51 236 0.0 0.0 0.00 0.00 0.00 89 1031.6
20260830204455 51 280 0.0 0.0 0.00 0.00 0.00 89 1031.5
20260830203935 51 303 0.0 0.0 0.00 0.00 0.00 89 1031.5
20260830202801 51 285 0.0 0.0 0.00 0.00 0.00 89 1031.5
20260830201649 51 276 0.0 1.0 0.00 0.00 0.00 89 1031.5
20260830201151 51 269 0.0 0.0 0.00 0.00 0.00 89 1031.4
20260830200656 51 243 0.0 0.0 0.00 0.00 0.00 89 1031.4
20260830200202 51 219 0.0 0.0 0.00 0.00 0.00 89 1031.4
20260830195654 51 281 0.0 1.0 0.00 0.00 0.00 89 1031.4
20260830195149 51 265 0.0 0.0 0.00 0.00 0.00 89 1031.4
20260830194659 51 308 0.0 2.0 0.00 0.00 0.00 89 1031.4
20260830194208 52 305 0.0 1.0 0.00 0.00 0.00 89 1031.4
20260830193715 52 274 0.0 1.0 0.00 0.00 0.00 89 1031.4
20260830192531 52 328 0.0 0.0 0.00 0.00 0.00 89 1031.3
20260830191350 52 34 0.0 3.0 0.00 0.00 0.00 89 1031.3
20260830190849 52 286 0.0 3.0 0.00 0.00 0.00 89 1031.3
20260830190340 52 305 0.0 2.0 0.00 0.00 0.00 89 1031.3
20260830185845 52 23 0.0 2.0 0.00 0.00 0.00 89 1031.3
20260830185348 52 269 0.0 1.0 0.00 0.00 0.00 89 1031.3
20260830184211 52 294 0.0 2.0 0.00 0.00 0.00 89 1031.3
20260830183719 52 277 0.0 2.0 0.00 0.00 0.00 89 1031.3
20260830183228 52 323 0.0 3.0 0.00 0.00 0.00 89 1031.3
20260830182723 52 290 0.0 3.0 0.00 0.00 0.00 89 1031.3
20260830181548 52 295 0.0 3.0 0.00 0.00 0.00 89 1031.3
20260830181036 52 284 0.0 2.0 0.00 0.00 0.00 89 1031.2
20260830175249 53 320 0.0 1.0 0.00 0.00 0.00 89 1031.3